Tracking 35237 objects as of 6-Sep-2026
HD Live streaming from Space Station
objects crossing your sky now

STARLINK-1617


STARLINK-1617 is no longer on orbit
STARLINK-1617 is classified as:


NORAD ID: 46350
Int'l Code: 2020-062AB
Launch date: September 3, 2020
Source: United States (US)
Launch site: AIR FORCE EASTERN TEST RANGE (AFETR)
Decay date: 2024-06-08
Your satellite tracking list
Your tracking list is empty




NASA's NSSDC Master Catalog

Two Line Element Set (TLE):
1 46350U 20062AB  24159.67309141  .27472704  12265-4  39212-2 0  9992
2 46350  53.0306 321.1677 0014437 288.1110 177.6355 16.33671739208701
Source of the keplerian elements: AFSPC